When you browse on this site, cookies collect data to enhance your experience and personalize the content and advertising you see.
Visit our Privacy Policy to learn more. By continuing to use the site, you agree to this use of cookies and data.
  • In Portugal
  • List of Countries
  • For 7 days
  • Water Temperature
  • Weather Map
  • Weather Widgets
  • user-avatar
    Login

    Hourly Weather Corozal

    Today, 26 May, Tuesday

    Time Temperature Precipitation Wind Pressure Humidity
    00:00 +29°C° 0 mm 3 mps 755 mmHg 94%
    01:00 +29°C° 0 mm 2 mps 755 mmHg 94%
    02:00 +29°C° 0 mm 2 mps 755 mmHg 94%
    03:00 +28°C° 0 mm 2 mps 754 mmHg 95%
    04:00 +29°C° 0 mm 2 mps 754 mmHg 94%
    05:00 +29°C° 0 mm 2 mps 755 mmHg 93%
    06:00 +29°C° 0 mm 2 mps 755 mmHg 92%
    07:00 +30°C° 0 mm 2 mps 755 mmHg 85%
    08:00 +32°C° 0 mm 2 mps 756 mmHg 77%
    09:00 +34°C° 0 mm 3 mps 756 mmHg 70%
    10:00 +35°C° 0 mm 3 mps 756 mmHg 65%
    11:00 +37°C° 0 mm 4 mps 756 mmHg 60%
    12:00 +38°C° 0 mm 4 mps 756 mmHg 55%
    13:00 +37°C° 0 mm 4 mps 755 mmHg 56%
    14:00 +37°C° 0 mm 4 mps 755 mmHg 57%
    15:00 +36°C° 0 mm 4 mps 754 mmHg 57%
    16:00 +35°C° 0 mm 4 mps 754 mmHg 64%
    17:00 +34°C° 0 mm 3 mps 754 mmHg 71%
    18:00 +31°C° 0 mm 3 mps 754 mmHg 77%
    19:00 +30°C° 0 mm 3 mps 755 mmHg 82%
    20:00 +29°C° 0 mm 2 mps 756 mmHg 86%
    21:00 +28°C° 0 mm 2 mps 757 mmHg 91%
    22:00 +28°C° 0 mm 2 mps 757 mmHg 92%
    23:00 +28°C° 0 mm 2 mps 757 mmHg 92%

    Tomorrow, 27 May, Wednesday

    Time Temperature Precipitation Wind Pressure Humidity
    00:00 +28°C° 0 mm 2 mps 757 mmHg 93%
    01:00 +29°C° 0 mm 2 mps 757 mmHg 91%
    02:00 +29°C° 0 mm 2 mps 757 mmHg 88%
    03:00 +29°C° 0 mm 2 mps 757 mmHg 86%
    04:00 +29°C° 0 mm 2 mps 757 mmHg 87%
    05:00 +29°C° 0 mm 2 mps 757 mmHg 88%
    06:00 +29°C° 0 mm 2 mps 758 mmHg 89%
    07:00 +30°C° 0.1 mm 2 mps 758 mmHg 81%
    08:00 +33°C° 0.1 mm 3 mps 758 mmHg 73%
    09:00 +34°C° 0.1 mm 3 mps 758 mmHg 65%
    10:00 +35°C° 0 mm 3 mps 758 mmHg 61%
    11:00 +36°C° 0 mm 4 mps 758 mmHg 57%
    12:00 +37°C° 0 mm 4 mps 757 mmHg 53%
    13:00 +37°C° 0 mm 4 mps 757 mmHg 54%
    14:00 +37°C° 0 mm 4 mps 756 mmHg 55%
    15:00 +36°C° 0 mm 4 mps 756 mmHg 55%
    16:00 +35°C° 0 mm 3 mps 756 mmHg 62%
    17:00 +34°C° 0 mm 3 mps 756 mmHg 68%
    18:00 +31°C° 0 mm 3 mps 756 mmHg 74%
    19:00 +30°C° 0 mm 3 mps 757 mmHg 79%
    20:00 +29°C° 0 mm 3 mps 757 mmHg 83%
    21:00 +29°C° 0 mm 2 mps 758 mmHg 87%
    22:00 +28°C° 0.1 mm 2 mps 758 mmHg 89%
    23:00 +28°C° 0.1 mm 2 mps 758 mmHg 90%

    Day after tomorrow, 28 May, Thursday

    Time Temperature Precipitation Wind Pressure Humidity
    00:00 +28°C° 0.1 mm 2 mps 758 mmHg 92%
    01:00 +28°C° 0.1 mm 3 mps 758 mmHg 92%
    02:00 +28°C° 0.1 mm 3 mps 758 mmHg 92%
    03:00 +28°C° 0.1 mm 3 mps 758 mmHg 92%
    04:00 +28°C° 0 mm 3 mps 758 mmHg 92%
    05:00 +28°C° 0 mm 2 mps 758 mmHg 91%
    06:00 +27°C° 0 mm 2 mps 758 mmHg 90%
    07:00 +29°C° 0 mm 2 mps 759 mmHg 82%
    08:00 +30°C° 0 mm 3 mps 759 mmHg 73%
    09:00 +33°C° 0 mm 3 mps 760 mmHg 65%
    10:00 +34°C° 0 mm 3 mps 759 mmHg 60%
    11:00 +35°C° 0 mm 3 mps 759 mmHg 55%
    12:00 +36°C° 0 mm 3 mps 759 mmHg 50%
    13:00 +36°C° 0 mm 3 mps 758 mmHg 50%
    14:00 +36°C° 0 mm 3 mps 758 mmHg 51%
    15:00 +35°C° 0 mm 3 mps 757 mmHg 51%
    16:00 +34°C° 0 mm 3 mps 757 mmHg 58%
    17:00 +33°C° 0 mm 3 mps 757 mmHg 66%
    18:00 +30°C° 0 mm 3 mps 757 mmHg 73%
    19:00 +29°C° 0 mm 2 mps 758 mmHg 78%
    20:00 +28°C° 0 mm 2 mps 758 mmHg 82%
    21:00 +28°C° 0 mm 2 mps 759 mmHg 87%
    22:00 +27°C° 0 mm 1 mps 759 mmHg 90%
    23:00 +27°C° 0 mm 1 mps 759 mmHg 92%

    29 May, Friday

    Time Temperature Precipitation Wind Pressure Humidity
    00:00 +27°C° 0 mm 1 mps 758 mmHg 95%
    01:00 +26°C° 0 mm 1 mps 758 mmHg 95%
    02:00 +26°C° 0 mm 1 mps 758 mmHg 95%
    03:00 +26°C° 0 mm 1 mps 757 mmHg 95%
    04:00 +27°C° 0 mm 1 mps 758 mmHg 94%
    05:00 +27°C° 0 mm 2 mps 758 mmHg 93%
    06:00 +27°C° 0 mm 2 mps 758 mmHg 93%
    07:00 +29°C° 0.1 mm 2 mps 758 mmHg 83%
    08:00 +31°C° 0.1 mm 3 mps 759 mmHg 74%
    09:00 +34°C° 0.1 mm 3 mps 759 mmHg 64%
    10:00 +34°C° 0.2 mm 3 mps 758 mmHg 61%
    11:00 +35°C° 0.2 mm 3 mps 758 mmHg 58%
    12:00 +36°C° 0.2 mm 3 mps 758 mmHg 54%
    13:00 +36°C° 0.1 mm 3 mps 757 mmHg 54%
    14:00 +36°C° 0.1 mm 3 mps 757 mmHg 53%
    15:00 +36°C° 0.1 mm 3 mps 756 mmHg 53%
    16:00 +34°C° 0 mm 3 mps 756 mmHg 58%
    17:00 +33°C° 0 mm 3 mps 757 mmHg 63%
    18:00 +31°C° 0 mm 3 mps 757 mmHg 68%
    19:00 +30°C° 0 mm 3 mps 757 mmHg 73%
    20:00 +29°C° 0 mm 3 mps 758 mmHg 78%
    21:00 +28°C° 0 mm 2 mps 758 mmHg 84%
    22:00 +28°C° 0 mm 2 mps 758 mmHg 85%
    23:00 +28°C° 0 mm 2 mps 758 mmHg 87%

    30 May, Saturday

    Time Temperature Precipitation Wind Pressure Humidity
    00:00 +28°C° 0 mm 2 mps 758 mmHg 88%
    01:00 +27°C° 0.2 mm 2 mps 758 mmHg 90%
    02:00 +27°C° 0.2 mm 2 mps 757 mmHg 91%
    03:00 +27°C° 0.2 mm 2 mps 757 mmHg 92%
    04:00 +27°C° 0.1 mm 2 mps 757 mmHg 92%
    05:00 +27°C° 0.1 mm 2 mps 757 mmHg 91%
    06:00 +27°C° 0.1 mm 2 mps 757 mmHg 91%
    07:00 +29°C° 0.2 mm 3 mps 757 mmHg 83%
    08:00 +30°C° 0.2 mm 3 mps 758 mmHg 75%
    09:00 +33°C° 0.2 mm 3 mps 758 mmHg 67%
    10:00 +34°C° 0.3 mm 3 mps 757 mmHg 63%
    11:00 +34°C° 0.3 mm 3 mps 757 mmHg 60%
    12:00 +35°C° 0.3 mm 3 mps 757 mmHg 56%
    13:00 +35°C° 0 mm 3 mps 756 mmHg 55%
    14:00 +35°C° 0 mm 4 mps 755 mmHg 53%
    15:00 +35°C° 0 mm 4 mps 755 mmHg 52%
    16:00 +34°C° 0 mm 4 mps 755 mmHg 59%
    17:00 +31°C° 0 mm 3 mps 756 mmHg 66%
    18:00 +30°C° 0 mm 3 mps 756 mmHg 73%
    19:00 +29°C° 0.3 mm 3 mps 756 mmHg 77%
    20:00 +28°C° 0.3 mm 3 mps 757 mmHg 81%
    21:00 +28°C° 0.3 mm 3 mps 757 mmHg 86%
    22:00 +27°C° 0.5 mm 2 mps 757 mmHg 88%
    23:00 +27°C° 0.5 mm 2 mps 758 mmHg 90%

    31 May, Sunday

    Time Temperature Precipitation Wind Pressure Humidity
    00:00 +27°C° 0.5 mm 1 mps 758 mmHg 92%
    01:00 +26°C° 0 mm 1 mps 758 mmHg 92%
    02:00 +26°C° 0 mm 1 mps 757 mmHg 92%
    03:00 +26°C° 0 mm 1 mps 757 mmHg 92%
    04:00 +26°C° 0.9 mm 1 mps 757 mmHg 93%
    05:00 +26°C° 0.9 mm 1 mps 757 mmHg 94%
    06:00 +25°C° 0.9 mm 1 mps 757 mmHg 94%
    07:00 +26°C° 0.5 mm 1 mps 758 mmHg 93%
    08:00 +26°C° 0.5 mm 1 mps 758 mmHg 91%
    09:00 +24°C° 0.5 mm 0 mps 759 mmHg 90%
    10:00 +26°C° 0.3 mm 1 mps 759 mmHg 90%
    11:00 +25°C° 0.3 mm 1 mps 759 mmHg 90%
    12:00 +25°C° 0.3 mm 2 mps 759 mmHg 90%
    13:00 +25°C° 0.4 mm 2 mps 759 mmHg 91%
    14:00 +24°C° 0.4 mm 3 mps 758 mmHg 91%
    15:00 +24°C° 0.4 mm 3 mps 758 mmHg 92%
    16:00 +23°C° 0.6 mm 4 mps 758 mmHg 92%
    17:00 +23°C° 0.6 mm 4 mps 758 mmHg 93%
    18:00 +23°C° 0.6 mm 4 mps 758 mmHg 94%
    19:00 +22°C° 0.2 mm 4 mps 758 mmHg 94%
    20:00 +22°C° 0.2 mm 3 mps 759 mmHg 94%
    21:00 +22°C° 0.2 mm 3 mps 759 mmHg 94%
    22:00 +22°C° 0.2 mm 3 mps 759 mmHg 94%
    23:00 +22°C° 0.2 mm 3 mps 759 mmHg 94%
    Show more